Regional Weather Roundup
Issued by NWS

Home | Current Version | Previous Version | Text Only | Print | Product List | Glossary Off
Versions: 1 2 3 4 5 6 7 8 9 10 11 12 13 14 15 16 17 18 19 20 21 22 23 24 25 26 27 28 29 30 31 32 33 34 35 36 37 38 39 40 41 42 43 44 45 46 47 48 49 50

000
ASUS43 KMKX 270421
RWRWI

WISCONSIN REGIONAL WEATHER ROUNDUP
NATIONAL WEATHER SERVICE MILWAUKEE/SULLIVAN WI
1100 PM CDT TUE AUG 26 2014

NOTE: "FAIR" INDICATES FEW OR NO CLOUDS BELOW 12,000 FEET WITH NO
SIGNIFICANT WEATHER AND/OR OBSTRUCTIONS TO VISIBILITY.

WIZ001-002-006>008-014>016-023>028-270500-
NORTHWEST WISCONSIN

CITY           SKY/WX    TMP DP  RH WIND       PRES   REMARKS
SUPERIOR ARPT  MOCLDY    58  50  77 N5        30.16S
ASHLAND        MOCLDY    56  53  90 W3        30.17R
HAYWARD        MOCLDY    57  55  93 CALM      30.17R
SIREN          LGT RAIN  59  56  89 CALM      30.17S
RICE LAKE      CLOUDY    61  55  81 CALM      30.18S
LADYSMITH      MOCLDY    60  55  83 NW5       30.18R
EAU CLAIRE     MOCLDY    62  57  83 CALM      30.15R
MENOMONIE      MOCLDY    64  56  75 W3        30.17R
NEW RICHMOND   CLOUDY    61  55  81 NE3       30.16S
OSCEOLA        CLOUDY    62  56  83 CALM      30.19S
$$

WIZ003>005-009-010-017-018-270500-
NORTH CENTRAL WISCONSIN

CITY           SKY/WX    TMP DP  RH WIND       PRES   REMARKS
WOODRUFF       PTCLDY    55  52  91 CALM      30.15F
RHINELANDER    PTCLDY    56  52  86 CALM      30.16S
EAGLE RIVER    PTCLDY    50  50 100 CALM      30.15S
LAND O LAKES   CLEAR     47  47  99 CALM      30.16S
PHILLIPS       CLOUDY    54  53  98 CALM      30.16R
TOMAHAWK       MOCLDY    54  52  94 CALM      30.17R
MEDFORD        MOCLDY    55  54  95 CALM      30.16S
MERRILL        MOCLDY    57  55  93 CALM      30.15S
$$

WIZ029-030-035-036-043>047-270500-
CENTRAL WISCONSIN

CITY           SKY/WX    TMP DP  RH WIND       PRES   REMARKS
WAUSAU         MOCLDY    61  55  81 NW5       30.14R
MOSINEE        MOCLDY    59  55  88 NW8       30.16S
MARSHFIELD     PTCLDY    58  54  86 NW6       30.15S
STEVENS POINT  MOCLDY    60  53  76 CALM      30.15R
WAUPACA        MOCLDY    63  59  88 CALM      30.14S
WAUTOMA        MOCLDY    61  59  93 CALM      30.15R
WISC RAPIDS    MOCLDY    62  56  80 NW3       30.15S
CAMP DOUGLAS   CLOUDY    59  59 100 CALM      30.15R
$$

WIZ011>013-019>022-031-037>040-048>050-270500-
NORTHEAST WISCONSIN

CITY           SKY/WX    TMP DP  RH WIND       PRES   REMARKS
ANTIGO         PTCLDY    58  54  85 CALM      30.16R
STURGEON BAY   CLEAR     61  57  88 CALM      30.12S
GREEN BAY      PTCLDY    59  57  93 NW5       30.12R
MANITOWOC      CLEAR     63  58  83 CALM      30.12R
APPLETON       PTCLDY    61  54  77 W7        30.14R
CLINTONVILLE   PTCLDY    63  55  77 CALM      30.12S
OSHKOSH        CLEAR     63  57  81 W5        30.13R
$$

WIZ032>034-041-042-053>061-270500-
SOUTHWEST WISCONSIN

CITY           SKY/WX    TMP DP  RH WIND       PRES   REMARKS
LA CROSSE      CLOUDY    66  59  78 N3        30.14S
SPARTA         CLOUDY    60  58  94 CALM      30.16S
VIROQUA        MOCLDY    63  59  88 N3        30.16S
BOSCOBEL       CLOUDY    67  61  81 CALM      30.14R
PRAIRIE DU CHI CLOUDY    67  62  84 SE3       30.13S
PLATTEVILLE    FAIR      65  62  89 N5        30.14S
$$

WIZ056-057-062-063-064-067-068-270500-
SOUTH CENTRAL WISCONSIN

CITY           SKY/WX    TMP DP  RH WIND       PRES   REMARKS
BARABOO/DELLS  MOCLDY    65  56  73 CALM      30.15R
LONE ROCK      CLOUDY    70  61  73 CALM      30.14S
WATERTOWN      CLEAR     60  59  94 N3        30.13S
MADISON        PTCLDY    63  59  87 NW3       30.13S
MIDDLETON      FAIR      63  62  96 CALM      30.14S
MONROE         PTCLDY    66  61  82 N6        30.13S
JANESVILLE     PTCLDY    68  59  73 CALM      30.12S
$$

WIZ051-052-058>065-066-070>072-270500-
SOUTHEAST WISCONSIN

CITY           SKY/WX    TMP DP  RH WIND       PRES   REMARKS
MILWAUKEE      PTCLDY    67  59  75 NW3       30.12S
WAUKESHA       CLEAR     61  55  82 CALM      30.14S
MILWAUKEE/TIMM CLEAR     63  57  82 CALM      30.13R
RACINE         CLEAR     66  62  87 NW3       30.13R
BURLINGTON     CLEAR     59  59 100 CALM      30.12S
KENOSHA        CLEAR     63  61  93 CALM      30.13R
FOND DU LAC    CLEAR     62  56  80 NW7       30.13S
SHEBOYGAN      CLEAR     58  57  97 CALM      30.12R
WEST BEND      CLEAR     63  55  77 NW5       30.14R
JUNEAU         PTCLDY    61  57  87 CALM      30.15R
$$

LSZ147-162-270500-
LAKE SUPERIOR

STATION/POSITION TIME  TEMP    WIND        PRES    WAVE
                       AIR SEA DIR/SP/G            HT/PER
                 (UTC) (F)     (DEG/KT/KT) (MB)    (FT/S)
W MID LAKE BUOY  0350   58 55  330/  8/  8 1020.2F   1/ 4
DEVILS ISLAND    0400   60      30/  3/  4 1021.1R
PORT WING        0340   62     320/ 10/ 12 1021.0R
SAXON HARBOR     0300   57      CALM  /  3 1020.7R
$$

LMZ867-665-643>646-270500-
LAKE MICHIGAN

STATION/POSITION TIME  TEMP    WIND        PRES    WAVE
                       AIR SEA DIR/SP/G            HT/PER
                 (UTC) (F)     (DEG/KT/KT) (MB)    (FT/S)
N MID LAKE BUOY  0350   62 66   10/ 16/ 19 1019.7R   1
NORTHPORT PIER   0300   63     190/  3/  5 1019.0S
SISTER BAY       0311   63     150/  4/  7   N/A
ALGOMA LAKESHORE 0138             CALM       N/A
KEWAUNEE LAKESHO 0400   62     300/  3/  4 1018.8R
SHEBOYGAN LAKESH 0400   67 66  320/  5/  6 1019.9R
ATWATER BUOY     0400   69     340/  4/  4 1020.8S
MILWAUKEE LAKESH 0400   70     310/  3/  5   N/A
S MID LAKE BUOY  0350   69 69  340/  2/  4 1019.4R   1
KENOSHA   LAKESH 0400   70        CALM     1019.3S
$$

TC  - TEMPERATURE IN CELSIUS
VSB - VISIBILITY IN STATUTE MILES
WCI - WIND CHILL INDEX
HX  - HEAT INDEX



USA.gov is the U.S. government's official web portal to all federal, state and local government web resources and services.